Regional Weather Roundup
Issued by NWS

Home | Current Version | Previous Version | Text Only | Print | Product List | Glossary On
Versions: 1 2 3 4 5 6 7 8 9 10 11 12 13 14 15 16 17 18 19 20 21 22 23 24 25 26 27 28 29 30 31 32 33 34 35 36 37 38 39 40 41 42 43 44 45 46 47 48 49 50
000
ASUS44 KOUN 271010
RWROK

WEATHER ROUNDUP FOR OKLAHOMA
NATIONAL WEATHER SERVICE NORMAN OK
400 AM CST THU NOV 27 2014

NOTE: "FAIR" INDICATES FEW OR NO CLOUDS BELOW 12,000 FEET WITH NO
      SIGNIFICANT WEATHER AND/OR OBSTRUCTIONS TO VISIBILITY.

OKZ001>007-009>012-014-015-017-271100-
NORTHWEST OKLAHOMA AND THE PANHANDLE

CITY           SKY/WX    TMP DP  RH WIND       PRES   REMARKS
GAGE           CLEAR     21  16  81 SW5       30.45S WCI  15
ENID/WOODRING  CLEAR     28  23  80 CALM      30.50R
$$

OKZ016-021>023-033>039-044-045-271100-
SOUTHWEST OKLAHOMA

CITY           SKY/WX    TMP DP  RH WIND       PRES   REMARKS
LAWTON/REGL    CLEAR     35  25  66 NE7       30.48R WCI  29
LAWTON/FT SILL CLEAR     33  24  69 N6        30.47R WCI  28
FREDERICK      CLEAR     34  26  72 CALM      30.46S
CLINTON        PTCLDY    31  21  66 NE8       30.47S WCI  23
HOBART         CLEAR     31  25  78 E7        30.47S WCI  24
ALTUS AFB      CLEAR     30  25  83 NE1       30.48S
$$

OKZ018>020-024>031-271100-
CENTRAL OKLAHOMA

CITY           SKY/WX    TMP DP  RH WIND       PRES   REMARKS
OKLAHOMA CITY  CLEAR     33  23  66 N8        30.49F WCI  26
OKC/WILEY POST CLEAR     30  23  75 N5        30.50F WCI  25
OKC/TINKER AFB CLEAR     31  24  74 N5        30.49S WCI  26
STILLWATER     CLEAR     28  22  78 NW3       30.51R
GUTHRIE        CLEAR     28  23  81 CALM      30.51S
$$

OKZ008-013-054>072-271100-
NORTHEAST OKLAHOMA

CITY           SKY/WX    TMP DP  RH WIND       PRES   REMARKS
TULSA          CLEAR     29  22  75 N9        30.51R WCI  20
TULSA/JONES    CLEAR     31  22  69 N7        30.52R WCI  24
PONCA CITY     CLEAR     24  19  81 CALM      30.51R
BARTLESVILLE   CLEAR     26  20  77 N6        30.52R WCI  19
MUSKOGEE       CLEAR     30  23  75 NW7       30.51R WCI  23
$$

OKZ032-040>043-046>053-073>077-271100-
SOUTH CENTRAL/SOUTHEAST OKLAHOMA

CITY           SKY/WX    TMP DP  RH WIND       PRES   REMARKS
ARDMORE/DWNTWN CLEAR     37  27  65 NE12      30.47S WCI  30
MCALESTER      PTCLDY    34  25  69 N7        30.50R WCI  28
$$



USA.gov is the U.S. government's official web portal to all federal, state and local government web resources and services.